This demonstration page uses our WeatherBlox Daily Observations layout. Learn more.

Left ArrowRight Arrow

39.51506, -84.39828

Hourly Observations for February 19, 2017

Temp ( °F °C ) Dew Point ( °F °C ) Humidity (%) Winds ( mph kmh ) Pressure ( in mb ) Visibility ( mi km ) Precip ( " mm )
12:53 am 00:53 Mostly Clear 49 9.4 45 7.2 86 86 W 10 17 29.90 1013 8 13 0.00 0.00
1:53 am 01:53 Clear 47 8.3 45 7.2 93 93 SW 7 11 29.90 1013 8 13 0.00 0.00
2:53 am 02:53 Clear with Mist and Fog 45 7.2 43 6.1 93 93 SSW 6 9 29.91 1013 6 10 0.00 0.00
3:53 am 03:53 Clear with Mist and Fog 46 7.8 44 6.7 93 93 SW 7 11 29.92 1013 5 8 0.00 0.00
4:27 am 04:27 Clear with Mist and Fog 42 5.6 41 5 96 96 S 8 13 29.97 1015 2 3 0.00 0.00
4:45 am 04:45 Clear with Fog 42 5.6 41 5 96 96 SSW 6 9 29.97 1015 1 1 0.00 0.00
4:53 am 04:53 Clear with Mist and Fog 43 6.1 42 5.6 97 97 SSW 6 9 29.94 1014 1 2 0.00 0.00
5:00 am 05:00 Clear with Fog 42 5.6 41 5 96 96 SSW 6 9 29.97 1015 1 1 0.00 0.00
5:15 am 05:15 Clear with Mist and Fog 42 5.6 42 5.6 100 100 SSW 6 9 30.00 1016 1 2 0.00 0.00
5:34 am 05:34 Clear with Mist and Fog 44 6.7 43 6.1 96 96 SSW 7 11 30.00 1016 3 5 0.00 0.00
5:53 am 05:53 Mostly Cloudy with Mist and Fog 45 7.2 44 6.7 97 97 SSW 8 13 29.97 1015 4 6 0.00 0.00
6:00 am 06:00 Cloudy with Mist and Fog 46 7.8 45 7.2 96 96 SSW 7 11 30.00 1016 4 6 0.00 0.00
6:45 am 06:45 Cloudy with Mist and Fog 46 7.8 45 7.2 96 96 WSW 9 15 30.03 1017 5 8 0.00 0.00
6:53 am 06:53 Cloudy with Mist and Fog 46 7.8 45 7.2 96 96 WSW 9 15 30.00 1016 5 8 0.00 0.00
7:03 am 07:03 Cloudy with Mist and Fog 46 7.8 45 7.2 96 96 WSW 7 11 30.03 1017 4 6 0.00 0.00
7:46 am 07:46 Cloudy with Mist and Fog 46 7.8 45 7.2 96 96 WSW 7 11 30.03 1017 2 3 0.00 0.00
7:53 am 07:53 Cloudy with Mist and Fog 46 7.8 45 7.2 96 96 W 7 11 30.02 1017 2 3 0.00 0.00
8:53 am 08:53 Cloudy with Mist and Fog 46 7.8 45 7.2 96 96 W 6 9 30.05 1018 2 3 0.00 0.00
9:28 am 09:28 Cloudy with Mist and Fog 46 7.8 45 7.2 96 96 W 5 7 30.09 1019 2 3 0.00 0.00
9:53 am 09:53 Cloudy with Mist and Fog 46 7.8 45 7.2 96 96 WNW 7 11 30.07 1018 2 3 0.00 0.00
10:29 am 10:29 Cloudy with Mist and Fog 46 7.8 45 7.2 96 96 WSW 6 9 30.12 1020 3 5 0.00 0.00
10:53 am 10:53 Cloudy with Mist and Fog 47 8.3 45 7.2 93 93 W 6 9 30.09 1019 4 6 0.00 0.00
11:27 am 11:27 Cloudy with Mist and Fog 47 8.3 45 7.2 93 93 W 7 11 30.12 1020 5 8 0.00 0.00
11:53 am 11:53 Cloudy with Mist and Fog 47 8.3 45 7.2 93 93 SW 9 15 30.11 1020 5 8 0.00 0.00
12:53 pm 12:53 Cloudy with Mist and Fog 48 8.9 45 7.2 89 89 SW 7 11 30.09 1019 5 8 0.00 0.00
1:53 pm 13:53 Cloudy with Haze 50 10 45 7.2 83 83 WSW 5 7 30.09 1019 5 8 0.00 0.00
2:38 pm 14:38 Cloudy with Haze 50 10 45 7.2 83 83 SW 5 7 30.12 1020 6 10 0.00 0.00
2:53 pm 14:53 Cloudy with Haze 51 10.6 45 7.2 80 80 SW 6 9 30.09 1019 6 10 0.00 0.00
3:19 pm 15:19 Partly Cloudy 53 11.7 46 7.8 77 77 WSW 7 11 30.12 1020 8 13 0.00 0.00
3:53 pm 15:53 Sunny 54 12.2 45 7.2 72 72 SW 6 9 30.10 1019 10 16 0.00 0.00
4:53 pm 16:53 Sunny 56 13.3 45 7.2 67 67 WSW 5 7 30.10 1019 10 16 0.00 0.00
5:53 pm 17:53 Sunny 53 11.7 45 7.2 74 74 SSW 3 6 30.11 1020 10 16 0.00 0.00
6:53 pm 18:53 Clear 52 11.1 45 7.2 77 77 S 3 6 30.12 1020 10 16 0.00 0.00
7:53 pm 19:53 Clear 50 10 44 6.7 80 80 S 3 6 30.13 1020 8 13 0.00 0.00
8:53 pm 20:53 Clear 46 7.8 42 5.6 86 86 S 7 11 30.14 1021 7 11 0.00 0.00
9:53 pm 21:53 Clear with Mist and Fog 46 7.8 43 6.1 89 89 S 6 9 30.15 1021 6 10 0.00 0.00
10:53 pm 22:53 Clear with Mist and Fog 45 7.2 43 6.1 93 93 S 5 7 30.16 1021 4 6 0.00 0.00
11:18 pm 23:18 Clear with Mist and Fog 45 7.2 43 6.1 93 93 SSW 5 7 30.15 1021 3 4 0.00 0.00
11:32 pm 23:32 Clear with Mist and Fog 45 7.2 44 6.7 97 97 S 5 7 30.15 1021 3 5 0.00 0.00
11:40 pm 23:40 Clear with Mist and Fog 45 7.2 43 6.1 93 93 S 3 6 30.15 1021 2 3 0.00 0.00
11:53 pm 23:53 Clear with Mist and Fog 44 6.7 43 6.1 96 96 S 3 6 30.17 1022 1 2 0.00 0.00

Powered by AerisWeather